| time (UTC) | temp C | wind direction | speed KPH | gust KPH | rain 1hr cm | rain 24hr cm | rain mn cm | humidity % | barometer mb |
| 20260505171833 | 26 | 223 | 12.9 | 30.6 | 0.00 | 0.00 | 0.00 | 38 | 1007.4 |
| 20260505171313 | 25 | 226 | 11.3 | 24.1 | 0.00 | 0.00 | 0.00 | 39 | 1007.4 |
| 20260505170814 | 25 | 265 | 12.9 | 32.2 | 0.00 | 0.00 | 0.00 | 37 | 1007.6 |
| 20260505170314 | 26 | 251 | 14.5 | 32.2 | 0.00 | 0.00 | 0.00 | 37 | 1007.5 |
| 20260505165814 | 26 | 264 | 11.3 | 25.7 | 0.00 | 0.00 | 0.00 | 36 | 1007.6 |
| 20260505165313 | 26 | 219 | 12.9 | 27.4 | 0.00 | 0.00 | 0.00 | 37 | 1007.8 |
| 20260505164812 | 26 | 215 | 14.5 | 27.4 | 0.00 | 0.00 | 0.00 | 35 | 1007.9 |
| 20260505164312 | 26 | 287 | 12.9 | 25.7 | 0.00 | 0.00 | 0.00 | 37 | 1007.9 |
| 20260505163812 | 26 | 257 | 12.9 | 27.4 | 0.00 | 0.00 | 0.00 | 36 | 1008.0 |
| 20260505163330 | 26 | 244 | 12.9 | 29.0 | 0.00 | 0.00 | 0.00 | 38 | 1008.1 |
| 20260505162848 | 26 | 273 | 17.7 | 29.0 | 0.00 | 0.00 | 0.00 | 36 | 1008.0 |
| 20260505162328 | 26 | 258 | 11.3 | 37.0 | 0.00 | 0.00 | 0.00 | 38 | 1008.2 |
| 20260505161829 | 26 | 262 | 20.9 | 37.0 | 0.00 | 0.00 | 0.00 | 37 | 1008.3 |
| 20260505161311 | 26 | 275 | 19.3 | 30.6 | 0.00 | 0.00 | 0.00 | 37 | 1008.3 |
| 20260505160811 | 25 | 254 | 12.9 | 27.4 | 0.00 | 0.00 | 0.00 | 39 | 1008.3 |
| 20260505160311 | 25 | 282 | 11.3 | 27.4 | 0.00 | 0.00 | 0.00 | 39 | 1008.3 |
| 20260505153312 | 25 | 209 | 8.0 | 16.1 | 0.00 | 0.00 | 0.00 | 45 | 1008.4 |
| 20260505152812 | 25 | 262 | 6.4 | 19.3 | 0.00 | 0.00 | 0.00 | 46 | 1008.5 |
| 20260505152314 | 25 | 226 | 12.9 | 17.7 | 0.00 | 0.00 | 0.00 | 45 | 1008.7 |
| 20260505151812 | 25 | 278 | 4.8 | 24.1 | 0.00 | 0.00 | 0.00 | 46 | 1008.6 |
| 20260505151313 | 24 | 233 | 9.7 | 24.1 | 0.00 | 0.00 | 0.00 | 44 | 1008.6 |
| 20260505150834 | 25 | 237 | 8.0 | 17.7 | 0.00 | 0.00 | 0.00 | 46 | 1008.6 |
| 20260505150312 | 24 | 226 | 4.8 | 17.7 | 0.00 | 0.00 | 0.00 | 48 | 1008.6 |
| 20260505140311 | 21 | 203 | 11.3 | 16.1 | 0.00 | 0.00 | 0.00 | 54 | 1009.2 |
| 20260505124833 | 17 | 213 | 6.4 | 12.9 | 0.00 | 0.00 | 0.00 | 65 | 1009.9 |
| 20260505124312 | 17 | 234 | 6.4 | 11.3 | 0.00 | 0.00 | 0.00 | 65 | 1009.8 |
| 20260505123814 | 17 | 166 | 4.8 | 11.3 | 0.00 | 0.00 | 0.00 | 65 | 1009.8 |
| 20260505123314 | 17 | 223 | 3.2 | 11.3 | 0.00 | 0.00 | 0.00 | 65 | 1009.7 |
| 20260505122837 | 17 | 211 | 4.8 | 11.3 | 0.00 | 0.00 | 0.00 | 66 | 1009.7 |
| 20260505122319 | 17 | 176 | 3.2 | 11.3 | 0.00 | 0.00 | 0.00 | 66 | 1009.8 |
| 20260505121818 | 17 | 198 | 4.8 | 11.3 | 0.00 | 0.00 | 0.00 | 67 | 1009.8 |
| 20260505121316 | 17 | 217 | 6.4 | 11.3 | 0.00 | 0.00 | 0.00 | 66 | 1009.7 |
| 20260505120817 | 17 | 218 | 6.4 | 9.7 | 0.00 | 0.00 | 0.00 | 67 | 1009.7 |
| 20260505120334 | 17 | 185 | 3.2 | 8.0 | 0.00 | 0.00 | 0.00 | 69 | 1009.7 |
| 20260505115831 | 16 | 196 | 4.8 | 9.7 | 0.00 | 0.00 | 0.00 | 68 | 1009.7 |
| 20260505115314 | 16 | 200 | 4.8 | 9.7 | 0.00 | 0.00 | 0.00 | 69 | 1009.6 |
| 20260505114815 | 16 | 210 | 4.8 | 8.0 | 0.00 | 0.00 | 0.00 | 69 | 1009.6 |
| 20260505114316 | 16 | 219 | 1.6 | 8.0 | 0.00 | 0.00 | 0.00 | 69 | 1009.6 |
| 20260505113817 | 16 | 214 | 4.8 | 9.7 | 0.00 | 0.00 | 0.00 | 69 | 1009.5 |
| 20260505113340 | 16 | 215 | 4.8 | 8.0 | 0.00 | 0.00 | 0.00 | 68 | 1009.4 |
| 20260505112841 | 16 | 203 | 4.8 | 11.3 | 0.00 | 0.00 | 0.00 | 69 | 1009.4 |
| 20260505112321 | 16 | 244 | 3.2 | 8.0 | 0.00 | 0.00 | 0.00 | 71 | 1009.3 |
| 20260505111824 | 16 | 221 | 3.2 | 6.4 | 0.00 | 0.00 | 0.00 | 72 | 1009.2 |